Fort Wayne, IN

4:58 PM EDT on May 23, 2018 (GMT -0400)
Fort Wayne International

Weather History for KFWA - January, 2013

Change the Weather History Date:

Monday, January 7, 2013

  Actual Average Record
Temperature  
Mean Temperature 24 °F 25 °F  
Max Temperature 33 °F 32 °F 66 °F (2008)
Min Temperature 14 °F 18 °F -15 °F (1970)
Degree Days  
Heating Degree Days 41 40  
Month to date heating degree days 304 279  
Since 1 July heating degree days 2506 2607  
Cooling Degree Days 0 0  
Month to date cooling degree days 0 0  
Year to date cooling degree days 0 0  
Moisture  
Dew Point 21 °F    
Average Humidity 85    
Maximum Humidity 100    
Minimum Humidity 69    
Precipitation  
Precipitation 0.00 in 0.07 in 1.23 in (1937)
Month to date precipitation 0.01 0.57  
Year to date precipitation 0.01 0.57  
Snow  
Snow 0.00 in 0.30 in 4.10 in (2010)
Month to date snowfall 0.2 2.2  
Since 1 July snowfall 9.8 12.8  
Snow Depth 2.00 in    
Sea Level Pressure  
Sea Level Pressure 30.35 in    
Wind  
Wind Speed 9 mph (SSW)    
Max Wind Speed 21 mph    
Max Gust Speed 24 mph    
Visibility 7 miles    
Events      
T = Trace of Precipitation, MM = Missing Value Source: NWS Daily Summary

Daily Weather History Graph

Daily Weather History Graph

Search for Another Location

Airport or City:

Astronomy

Jan. 07, 2013 Rise Set
Actual Time 8:05 AM EST 5:29 PM EST
Civil Twilight 7:34 AM EST 5:59 PM EST
Nautical Twilight 7:00 AM EST 6:34 PM EST
Astronomical Twilight 6:27 AM EST 7:07 PM EST
Moon 3:27 AM EST (1/7) 1:39 PM EST (1/7)
Length of Visible Light 10h 24m
Length of Day
9h 23m
Waning Crescent, 23% of the Moon is Illuminated
Jan 7
Waning Crescent
Jan 11
New
Jan 18
First Quarter
Jan 26
Full
Feb 3
Last Quarter

Hourly Weather History & Observations

Time (EST) Temp. Windchill Dew Point Humidity Pressure Visibility Wind Dir Wind Speed Gust Speed Precip Events Conditions
12:23 AM 30.2 °F 21.9 °F 24.8 °F 80% 30.32 in 8.0 mi West 9.2 mph - N/A   Overcast
12:54 AM 28.9 °F 20.4 °F 25.0 °F 85% 30.35 in 8.0 mi West 9.2 mph - N/A   Mostly Cloudy
1:54 AM 28.9 °F 21.9 °F 25.0 °F 85% 30.36 in 10.0 mi WSW 6.9 mph - N/A   Mostly Cloudy
2:54 AM 28.9 °F 21.9 °F 25.0 °F 85% 30.38 in 7.0 mi West 6.9 mph - N/A   Mostly Cloudy
3:54 AM 27.0 °F 18.7 °F 23.0 °F 85% 30.39 in 7.0 mi WSW 8.1 mph - N/A   Mostly Cloudy
4:54 AM 24.1 °F 18.2 °F 21.9 °F 91% 30.41 in 5.0 mi WSW 4.6 mph - N/A   Mostly Cloudy
5:13 AM 23.0 °F 18.4 °F 21.2 °F 93% 30.37 in 6.0 mi WSW 3.5 mph - N/A   Scattered Clouds
5:54 AM 19.4 °F 11.5 °F 17.6 °F 93% 30.37 in 4.0 mi SSW 5.8 mph - N/A   Partly Cloudy
6:54 AM 17.1 °F 6.6 °F 16.0 °F 96% 30.44 in 3.0 mi SW 8.1 mph - N/A   Partly Cloudy
7:32 AM 15.8 °F 6.1 °F 15.8 °F 100% 30.41 in 2.5 mi SW 6.9 mph - N/A   Partly Cloudy
7:54 AM 15.1 °F 5.2 °F 14.0 °F 95% 30.45 in 3.0 mi SW 6.9 mph - N/A   Clear
8:12 AM 15.8 °F 6.1 °F 14.0 °F 93% 30.41 in 2.0 mi SSW 6.9 mph - N/A   Partly Cloudy
8:54 AM 17.1 °F 8.7 °F 16.0 °F 96% 30.45 in 2.5 mi SSW 5.8 mph - N/A   Partly Cloudy
9:54 AM 19.9 °F 11.1 °F 19.0 °F 96% 30.45 in 3.0 mi South 6.9 mph - N/A   Partly Cloudy
10:54 AM 23.0 °F 13.9 °F 21.0 °F 92% 30.45 in 8.0 mi SSW 8.1 mph - N/A   Partly Cloudy
11:54 AM 27.0 °F 18.0 °F 23.0 °F 85% 30.43 in 10.0 mi SSW 9.2 mph - N/A   Partly Cloudy
12:54 PM 30.0 °F 21.1 °F 24.1 °F 79% 30.37 in 10.0 mi SSW 10.4 mph - N/A   Partly Cloudy
1:54 PM 32.0 °F 21.6 °F 24.8 °F 75% 30.31 in 10.0 mi SSW 15.0 mph - N/A   Clear
2:54 PM 33.1 °F 22.2 °F 25.0 °F 72% 30.32 in 10.0 mi SSW 17.3 mph - N/A   Partly Cloudy
3:54 PM 33.1 °F 23.0 °F 25.0 °F 72% 30.31 in 10.0 mi SSW 15.0 mph - N/A   Partly Cloudy
4:54 PM 30.9 °F 21.7 °F 24.1 °F 76% 30.30 in 10.0 mi SSW 11.5 mph - N/A   Partly Cloudy
5:54 PM 28.4 °F 18.5 °F 21.2 °F 74% 30.26 in 10.0 mi South 11.5 mph - N/A   Partly Cloudy
6:54 PM 28.0 °F 17.5 °F 21.0 °F 75% 30.28 in 10.0 mi South 12.7 mph - N/A   Partly Cloudy
7:54 PM 28.0 °F 18.6 °F 21.9 °F 78% 30.27 in 8.0 mi South 10.4 mph - N/A   Clear
8:54 PM 24.1 °F 13.7 °F 19.9 °F 84% 30.26 in 10.0 mi South 10.4 mph - N/A   Partly Cloudy
9:54 PM 23.0 °F 13.9 °F 19.9 °F 88% 30.25 in 10.0 mi South 8.1 mph - N/A   Partly Cloudy
10:54 PM 21.0 °F 14.6 °F 18.0 °F 88% 30.25 in 8.0 mi South 4.6 mph - N/A   Scattered Clouds
11:54 PM 24.1 °F 13.7 °F 21.0 °F 88% 30.22 in 8.0 mi South 10.4 mph - N/A   Mostly Cloudy